Вернуться в каталог

YAOGAN-33 02

АктивенВоенныеSSO
NORAD 53698·PAYLOAD·🇨🇳 China

Запущен Sep 2, 2022 с Jiuquan Satellite Launch Center

Loading…

Ближайшие Пролёты (ближайшие 24 часа)

TLE

СвежийSource: Space-Track

Эпоха: Sep 14, 2026, 15:23 UTC

1 53698U 22106A   26257.64105663  .00000082  00000-0  27392-4 0  9992
2 53698  98.1846 264.1770 0000937 195.4860 164.6311 14.58751048214763

Отслеживайте YAOGAN-33 02 в реальном времени с AllMySat

Download on the App Store